When you browse on this site, cookies collect data to enhance your experience and personalize the content and advertising you see.
Visit our Privacy Policy to learn more. By continuing to use the site, you agree to this use of cookies and data.
  • In Romania
  • List of Countries
  • For 7 days
  • Water Temperature
  • Weather Map
  • Weather Widgets
  • user-avatar
    Login

    Hourly Weather Bocsa

    Today, 27 May, Wednesday

    Time Temperature Precipitation Wind Pressure Humidity
    00:00 +8°C° 0 mm 1 mps 748 mmHg 92%
    01:00 +8°C° 0 mm 1 mps 748 mmHg 93%
    02:00 +8°C° 0 mm 1 mps 748 mmHg 94%
    03:00 +7°C° 0 mm 1 mps 748 mmHg 95%
    04:00 +7°C° 0 mm 1 mps 748 mmHg 95%
    05:00 +8°C° 0 mm 1 mps 748 mmHg 93%
    06:00 +10°C° 0 mm 1 mps 748 mmHg 91%
    07:00 +11°C° 0 mm 1 mps 748 mmHg 89%
    08:00 +12°C° 0 mm 2 mps 749 mmHg 85%
    09:00 +13°C° 0 mm 2 mps 749 mmHg 80%
    10:00 +15°C° 0 mm 2 mps 749 mmHg 75%
    11:00 +16°C° 0.2 mm 3 mps 749 mmHg 73%
    12:00 +17°C° 0.2 mm 3 mps 748 mmHg 71%
    13:00 +18°C° 0.2 mm 4 mps 748 mmHg 69%
    14:00 +18°C° 0.6 mm 4 mps 748 mmHg 72%
    15:00 +17°C° 0.6 mm 4 mps 747 mmHg 75%
    16:00 +17°C° 0.6 mm 4 mps 747 mmHg 78%
    17:00 +15°C° 0.3 mm 4 mps 747 mmHg 81%
    18:00 +14°C° 0.3 mm 3 mps 747 mmHg 85%
    19:00 +13°C° 0.3 mm 3 mps 747 mmHg 88%
    20:00 +12°C° 0 mm 3 mps 747 mmHg 90%
    21:00 +12°C° 0 mm 2 mps 747 mmHg 92%
    22:00 +10°C° 0 mm 2 mps 747 mmHg 93%
    23:00 +10°C° 0 mm 2 mps 747 mmHg 94%

    Tomorrow, 28 May, Thursday

    Time Temperature Precipitation Wind Pressure Humidity
    00:00 +10°C° 0 mm 2 mps 747 mmHg 94%
    01:00 +10°C° 0 mm 1 mps 746 mmHg 95%
    02:00 +10°C° 0 mm 1 mps 746 mmHg 96%
    03:00 +10°C° 0 mm 1 mps 746 mmHg 96%
    04:00 +9°C° 0 mm 1 mps 746 mmHg 97%
    05:00 +11°C° 0 mm 1 mps 746 mmHg 95%
    06:00 +12°C° 0 mm 1 mps 746 mmHg 92%
    07:00 +13°C° 0 mm 1 mps 745 mmHg 90%
    08:00 +14°C° 0.2 mm 2 mps 745 mmHg 86%
    09:00 +15°C° 0.2 mm 2 mps 745 mmHg 81%
    10:00 +16°C° 0.2 mm 2 mps 745 mmHg 77%
    11:00 +17°C° 0.9 mm 3 mps 745 mmHg 75%
    12:00 +18°C° 0.9 mm 4 mps 744 mmHg 74%
    13:00 +18°C° 0.9 mm 4 mps 744 mmHg 72%
    14:00 +18°C° 0.8 mm 4 mps 743 mmHg 74%
    15:00 +18°C° 0.8 mm 4 mps 743 mmHg 75%
    16:00 +18°C° 0.8 mm 4 mps 743 mmHg 76%
    17:00 +15°C° 0.5 mm 4 mps 743 mmHg 79%
    18:00 +14°C° 0.5 mm 3 mps 742 mmHg 82%
    19:00 +13°C° 0.5 mm 3 mps 742 mmHg 85%
    20:00 +13°C° 0 mm 2 mps 742 mmHg 87%
    21:00 +12°C° 0 mm 2 mps 743 mmHg 88%
    22:00 +11°C° 0 mm 1 mps 743 mmHg 90%
    23:00 +11°C° 0 mm 1 mps 743 mmHg 91%

    Day after tomorrow, 29 May, Friday

    Time Temperature Precipitation Wind Pressure Humidity
    00:00 +10°C° 0 mm 1 mps 743 mmHg 92%
    01:00 +10°C° 0 mm 1 mps 742 mmHg 93%
    02:00 +9°C° 0 mm 1 mps 743 mmHg 95%
    03:00 +9°C° 0 mm 1 mps 743 mmHg 96%
    04:00 +8°C° 0 mm 2 mps 743 mmHg 97%
    05:00 +9°C° 0 mm 2 mps 743 mmHg 95%
    06:00 +10°C° 0 mm 2 mps 743 mmHg 94%
    07:00 +12°C° 0 mm 2 mps 743 mmHg 92%
    08:00 +13°C° 0 mm 2 mps 744 mmHg 90%
    09:00 +14°C° 0 mm 2 mps 744 mmHg 88%
    10:00 +14°C° 0 mm 2 mps 744 mmHg 85%
    11:00 +15°C° 0.9 mm 2 mps 743 mmHg 83%
    12:00 +16°C° 0.9 mm 2 mps 743 mmHg 81%
    13:00 +17°C° 0.9 mm 2 mps 743 mmHg 79%
    14:00 +17°C° 1.1 mm 3 mps 742 mmHg 80%
    15:00 +17°C° 1.1 mm 3 mps 742 mmHg 80%
    16:00 +17°C° 1.1 mm 3 mps 742 mmHg 81%
    17:00 +16°C° 0.8 mm 3 mps 742 mmHg 84%
    18:00 +15°C° 0.8 mm 2 mps 742 mmHg 87%
    19:00 +14°C° 0.8 mm 2 mps 742 mmHg 90%
    20:00 +13°C° 0.1 mm 2 mps 742 mmHg 91%
    21:00 +13°C° 0.1 mm 1 mps 742 mmHg 92%
    22:00 +12°C° 0.1 mm 1 mps 742 mmHg 94%
    23:00 +12°C° 0 mm 1 mps 742 mmHg 94%

    30 May, Saturday

    Time Temperature Precipitation Wind Pressure Humidity
    00:00 +11°C° 0 mm 1 mps 742 mmHg 95%
    01:00 +10°C° 0 mm 1 mps 742 mmHg 95%
    02:00 +10°C° 0 mm 1 mps 742 mmHg 95%
    03:00 +9°C° 0 mm 1 mps 742 mmHg 96%
    04:00 +9°C° 0 mm 1 mps 742 mmHg 96%
    05:00 +10°C° 0 mm 1 mps 742 mmHg 94%
    06:00 +12°C° 0 mm 1 mps 742 mmHg 91%
    07:00 +13°C° 0 mm 1 mps 742 mmHg 88%
    08:00 +15°C° 0 mm 1 mps 742 mmHg 82%
    09:00 +16°C° 0 mm 2 mps 742 mmHg 76%
    10:00 +18°C° 0 mm 2 mps 743 mmHg 69%
    11:00 +18°C° 0.5 mm 2 mps 742 mmHg 70%
    12:00 +18°C° 0.5 mm 2 mps 742 mmHg 70%
    13:00 +19°C° 0.5 mm 2 mps 742 mmHg 70%
    14:00 +19°C° 0.6 mm 2 mps 741 mmHg 71%
    15:00 +19°C° 0.6 mm 2 mps 741 mmHg 72%
    16:00 +19°C° 0.6 mm 2 mps 741 mmHg 72%
    17:00 +17°C° 0.3 mm 2 mps 741 mmHg 77%
    18:00 +16°C° 0.3 mm 1 mps 741 mmHg 82%
    19:00 +14°C° 0.3 mm 1 mps 741 mmHg 86%
    20:00 +14°C° 0.1 mm 1 mps 741 mmHg 87%
    21:00 +13°C° 0.1 mm 1 mps 741 mmHg 88%
    22:00 +12°C° 0.1 mm 1 mps 742 mmHg 89%
    23:00 +11°C° 0 mm 1 mps 742 mmHg 90%

    31 May, Sunday

    Time Temperature Precipitation Wind Pressure Humidity
    00:00 +10°C° 0 mm 0 mps 742 mmHg 90%
    01:00 +9°C° 0 mm 0 mps 742 mmHg 91%
    02:00 +11°C° 0 mm 1 mps 742 mmHg 92%
    03:00 +11°C° 0 mm 1 mps 742 mmHg 93%
    04:00 +11°C° 0 mm 1 mps 742 mmHg 94%
    05:00 +12°C° 0 mm 2 mps 742 mmHg 92%
    06:00 +12°C° 0 mm 2 mps 742 mmHg 89%
    07:00 +13°C° 0 mm 2 mps 742 mmHg 87%
    08:00 +13°C° 0 mm 3 mps 742 mmHg 79%
    09:00 +16°C° 0 mm 3 mps 742 mmHg 70%
    10:00 +17°C° 0 mm 4 mps 742 mmHg 62%
    11:00 +17°C° 0 mm 4 mps 741 mmHg 61%
    12:00 +18°C° 0 mm 4 mps 741 mmHg 60%
    13:00 +19°C° 0 mm 5 mps 741 mmHg 58%
    14:00 +18°C° 0.1 mm 4 mps 740 mmHg 61%
    15:00 +18°C° 0.1 mm 4 mps 740 mmHg 64%
    16:00 +18°C° 0.1 mm 3 mps 740 mmHg 66%
    17:00 +17°C° 0.2 mm 3 mps 740 mmHg 73%
    18:00 +15°C° 0.2 mm 2 mps 740 mmHg 79%
    19:00 +14°C° 0.2 mm 1 mps 740 mmHg 85%
    20:00 +13°C° 0.1 mm 1 mps 740 mmHg 87%
    21:00 +12°C° 0.1 mm 1 mps 740 mmHg 88%
    22:00 +12°C° 0.1 mm 1 mps 740 mmHg 90%
    23:00 +11°C° 0 mm 1 mps 740 mmHg 91%

    1 June, Monday

    Time Temperature Precipitation Wind Pressure Humidity
    00:00 +11°C° 0 mm 1 mps 740 mmHg 92%
    01:00 +11°C° 0 mm 1 mps 740 mmHg 94%
    02:00 +11°C° 0 mm 1 mps 739 mmHg 94%
    03:00 +11°C° 0 mm 1 mps 739 mmHg 95%
    04:00 +11°C° 0 mm 1 mps 739 mmHg 96%
    05:00 +12°C° 0.3 mm 1 mps 739 mmHg 96%
    06:00 +12°C° 0.3 mm 2 mps 739 mmHg 97%
    07:00 +12°C° 0.3 mm 2 mps 739 mmHg 97%
    08:00 +13°C° 0.2 mm 2 mps 739 mmHg 96%
    09:00 +13°C° 0.2 mm 2 mps 739 mmHg 95%
    10:00 +13°C° 0.2 mm 2 mps 739 mmHg 95%
    11:00 +14°C° 0.2 mm 2 mps 739 mmHg 93%
    12:00 +14°C° 0.2 mm 2 mps 739 mmHg 90%
    13:00 +15°C° 0.2 mm 2 mps 739 mmHg 88%
    14:00 +15°C° 0.3 mm 2 mps 739 mmHg 87%
    15:00 +16°C° 0.3 mm 2 mps 738 mmHg 86%
    16:00 +16°C° 0.3 mm 2 mps 738 mmHg 85%
    17:00 +15°C° 0.1 mm 1 mps 738 mmHg 88%
    18:00 +14°C° 0.1 mm 1 mps 738 mmHg 91%
    19:00 +13°C° 0.1 mm 1 mps 738 mmHg 94%
    20:00 +13°C° 0 mm 1 mps 738 mmHg 94%
    21:00 +12°C° 0 mm 1 mps 739 mmHg 94%
    22:00 +12°C° 0 mm 1 mps 739 mmHg 95%
    23:00 +10°C° 0 mm 0 mps 739 mmHg 95%
    Show more